Location: Caltech
(34.1382°N, 118.1253°W)
Time: 20:22:00
(UTC-08:00)

JAS-2 - Visible Passes

Search period start: 25 January 2015 00:00
Search period end: 04 February 2015 00:00
Orbit: 799 x 1322 km, 98.5° (Epoch: 24 January)

Date Brightness Start Highest point End Pass type
(mag) Time Alt. Az. Time Alt. Az. Time Alt. Az.
25 Jan 9.7 04:30:52 10° NNE 04:36:27 66° ESE 04:42:44 10° S visible
25 Jan 10.8 06:18:05 10° NNW 06:21:17 15° WNW 06:24:20 10° W visible
26 Jan 11.6 03:37:01 10° NE 03:41:13 21° E 03:46:00 10° SE visible
26 Jan 9.6 05:21:08 10° N 05:26:29 45° WNW 05:32:25 10° SW visible
27 Jan 9.9 04:25:52 10° NNE 04:31:31 61° E 04:37:53 10° S visible
27 Jan 10.7 06:12:45 10° NNW 06:16:23 17° WNW 06:19:56 10° WSW visible
28 Jan 11.7 03:32:09 10° NE 03:36:16 20° E 03:40:57 10° SE visible
28 Jan 9.6 05:16:03 10° N 05:21:34 50° WNW 05:27:43 10° SW visible
29 Jan 10.1 04:20:53 10° NNE 04:26:35 57° E 04:33:03 10° S visible
29 Jan 10.7 06:07:28 10° NNW 06:11:28 19° WNW 06:15:29 10° WSW visible
30 Jan 11.8 03:27:19 10° NE 03:31:19 19° E 03:35:54 10° SE visible
30 Jan 9.6 05:10:59 10° N 05:16:39 54° WNW 05:23:00 10° SSW visible
31 Jan 10.2 04:15:54 10° NNE 04:21:40 53° E 04:28:12 10° S visible
31 Jan 10.6 06:02:14 10° NNW 06:06:34 21° WNW 06:11:00 10° WSW visible
01 Feb 11.9 03:22:30 10° NE 03:26:22 18° E 03:30:51 10° SE visible
01 Feb 9.5 05:05:55 10° N 05:11:44 59° WNW 05:18:18 10° SSW visible
02 Feb 10.4 04:10:56 10° NNE 04:16:45 49° E 04:23:21 10° S visible
02 Feb 10.6 05:57:02 10° NNW 06:01:40 23° WNW 06:06:30 10° WSW visible
03 Feb 12.0 03:17:43 10° NE 03:21:26 17° E 03:25:46 10° SE visible
03 Feb 9.5 05:00:52 10° N 05:06:50 65° WNW 05:13:35 10° SSW visible
